This is the latest recevied weather packets stored in our database for station/object AJ5AG. If no packets are shown the sender has not sent any weather packets the latest 10 day(s).
| Time | Temp. | Humidity | Pressure | Rain* | Wind** | Luminosity | Snow |
|---|---|---|---|---|---|---|---|
| 1778025219 | 27.78° C | 75% | 1009.1 hPa | 0 mm | - | 36 W/m² | - |
| 1778024916 | 27.78° C | 75% | 1009.1 hPa | 0 mm | - | 55 W/m² | - |
| 1778024614 | 27.78° C | 75% | 1009 hPa | 0 mm | - | 70 W/m² | - |
| 1778024311 | 27.78° C | 75% | 1009.1 hPa | 0 mm | - | 63 W/m² | - |
| 1778024009 | 27.78° C | 74% | 1008.9 hPa | 0 mm | - | 42 W/m² | - |
| 1778023706 | 27.78° C | 73% | 1008.8 hPa | 0 mm | - | 50 W/m² | - |
| 1778023403 | 28.33° C | 73% | 1009 hPa | 0 mm | - | 61 W/m² | - |
| 1778023100 | 28.33° C | 73% | 1009.2 hPa | 0 mm | - | 98 W/m² | - |
| 1778022798 | 28.33° C | 73% | 1009 hPa | 0 mm | - | 78 W/m² | - |
| 1778022496 | 28.33° C | 73% | 1009.2 hPa | 0 mm | - | 70 W/m² | - |
| 1778022193 | 28.33° C | 73% | 1009.1 hPa | 0 mm | - | 88 W/m² | - |
| 1778021889 | 28.33° C | 73% | 1009.2 hPa | 0 mm | - | 102 W/m² | - |
| 1778021586 | 28.33° C | 74% | 1009.3 hPa | 0 mm | - | 82 W/m² | - |
| 1778021281 | 28.33° C | 73% | 1009.2 hPa | 0 mm | - | 95 W/m² | - |
| 1778020979 | 28.33° C | 73% | 1009.1 hPa | 0 mm | - | 93 W/m² | - |
| 1778020677 | 28.33° C | 73% | 1009 hPa | 0 mm | - | 93 W/m² | - |
| 1778020373 | 28.33° C | 73% | 1009.1 hPa | 0 mm | - | 101 W/m² | - |
| 1778020069 | 28.33° C | 74% | 1009 hPa | 0 mm | - | 122 W/m² | - |
| 1778019766 | 28.89° C | 74% | 1009.2 hPa | 0 mm | - | 102 W/m² | - |
| 1778019463 | 28.33° C | 73% | 1009 hPa | 0 mm | - | 96 W/m² | - |
| 1778019159 | 28.33° C | 73% | 1009.2 hPa | 0 mm | - | 117 W/m² | - |
| 1778018856 | 28.33° C | 72% | 1009 hPa | 0 mm | - | 105 W/m² | - |
| 1778018553 | 28.89° C | 71% | 1009 hPa | 0 mm | - | 101 W/m² | - |
| 1778018251 | 28.33° C | 72% | 1009.3 hPa | 0 mm | - | 135 W/m² | - |
| 1778017949 | 28.33° C | 72% | 1009.3 hPa | 0 mm | - | 137 W/m² | - |
* Rain latest hour (hover to see other rain measurements)
** Current wind speed in m/s (hover to see current wind gust speed)